Home   Weather   Eugene   Past weeks
Flag for USA

Past Weather in Eugene, Oregon, USA — Yesterday and Last 2 Weeks

Now
61 °F

Cool.


Feels Like: 61 °F
Forecast: 69 / 53 °F
Wind: No wind

Location: Old Colton - MADIS Station

Current Time: Sep 23, 2019 at 1:26:24 pm

Latest Report: Sep 23, 2019 at 12:30 pm


Visibility: N/A

Pressure: N/A

Humidity: 76%

Dew Point: 53 °F

Location of EugeneLocation

Past Weather in Eugene — Graph

°F

Eugene Temperature Yesterday

Maximum temperature yesterday: 68 °F (at 4:00 pm)
Minimum temperature yesterday: 54 °F (at 5:05 am)
Average temperature yesterday: 59 °F

High & Low Weather Summary for the Past Weeks

 TemperatureHumidityPressure
High81 °F (Sep 12, 4:25 pm)96% (Sep 9, 7:00 am)29.47 "Hg (Sep 9, 7:00 am)
Low50 °F (Sep 16, 4:45 am)50% (Sep 14, 5:25 pm)29.02 "Hg (Sep 15, 8:25 am)
Average59 °F88%29.22 "Hg
* Reported Sep 8 12:00 pm — Sep 23 12:20 pm, Eugene. Weather by CustomWeather, © 2019

Note: Actual official high and low records may vary slightly from our data, if they occured in-between our weather recording intervals... More about our weather records

Advertising

Eugene Weather History for the Previous 24 Hours

Scroll right to see more
 ConditionsComfort  
Time TempWeatherWind HumidityBarometerVisibility
12:20 pm
Mon, Sep 23
61 °FCool.No wind78%N/AN/A
12:00 pm61 °FCool.No wind81%N/AN/A
11:20 am59 °FCool.No wind87%N/AN/A
10:50 am58 °FCool.No wind90%N/AN/A
10:30 am57 °FCool.No wind92%29.47 "HgN/A
10:00 am57 °FCool.No wind95%29.46 "HgN/A
9:40 am56 °FCool.No wind95%29.45 "HgN/A
9:20 am56 °FCool.No wind95%N/AN/A
9:00 am55 °FQuite cool.No wind95%29.44 "HgN/A
8:20 am54 °FQuite cool.No wind95%N/AN/A
8:00 am54 °FQuite cool.No wind95%N/AN/A
7:40 am53 °FQuite cool.No wind95%29.43 "HgN/A
7:10 am53 °FQuite cool.No wind95%29.40 "HgN/A
7:00 am53 °FQuite cool.No wind95%29.40 "HgN/A
6:10 am53 °FQuite cool.No wind95%29.39 "HgN/A
6:00 am53 °FQuite cool.No wind95%29.39 "HgN/A
5:20 am54 °FQuite cool.No wind95%29.37 "HgN/A
5:10 am54 °FQuite cool.No wind95%29.37 "HgN/A
4:50 am54 °FQuite cool.No wind95%29.37 "HgN/A
4:00 am54 °FQuite cool.No wind95%29.36 "HgN/A
3:20 am53 °FQuite cool.No wind95%29.35 "HgN/A
3:00 am54 °FQuite cool.No wind95%29.35 "HgN/A
2:40 am54 °FQuite cool.No wind95%29.34 "HgN/A
2:20 am54 °FQuite cool.No wind95%29.34 "HgN/A
1:20 am55 °FQuite cool.No wind95%29.34 "HgN/A
1:00 am55 °FQuite cool.No wind95%N/AN/A
12:30 am55 °FQuite cool.No wind95%29.33 "HgN/A
12:20 am55 °FQuite cool.No wind95%N/AN/A
12:10 am55 °FQuite cool.No wind95%29.32 "HgN/A
11:20 pm
Sun, Sep 22
55 °FQuite cool.No wind95%29.31 "HgN/A
10:50 pm56 °FCool.No wind95%29.30 "HgN/A
10:40 pm56 °FCool.No wind95%29.30 "HgN/A
10:20 pm56 °FCool.No wind95%N/AN/A
10:10 pm56 °FCool.No wind95%29.29 "HgN/A
9:20 pm57 °FCool.No wind94%29.27 "HgN/A
9:10 pm57 °FCool.No wind94%29.26 "HgN/A
8:40 pm57 °FCool.No wind94%29.25 "HgN/A
8:10 pm57 °FCool.No wind94%N/AN/A
7:20 pm58 °FCool.No wind93%29.21 "HgN/A
7:10 pm58 °FCool.No wind93%29.20 "HgN/A
6:30 pm60 °FCool.1 mph91%29.19 "HgN/A
6:00 pm61 °FCool.No wind90%29.17 "HgN/A
5:30 pm62 °FCool.No wind88%N/AN/A
5:20 pm63 °FCool.No wind85%N/AN/A
4:40 pm65 °FCool.1 mph79%N/AN/A
4:20 pm67 °FCool.1 mph76%29.13 "HgN/A
4:00 pm68 °FCool.1 mph75%N/AN/A
3:20 pm67 °FCool.No wind80%N/AN/A
2:50 pm67 °FCool.No wind83%N/AN/A
2:30 pm66 °FCool.No wind86%N/AN/A
2:20 pm65 °FCool.No wind88%N/AN/A
2:10 pm65 °FCool.No wind86%N/AN/A
1:30 pm66 °FCool.No wind89%N/AN/A
1:00 pm64 °FCool.No wind91%N/AN/A
Weather by CustomWeather, © 2019

See weather overview